Location: Holyhead Bay
(53.3667°N, 4.6667°W)
Time: 22:55:33
(UTC+00:00)

Cosmos 1408 Rocket - Pass Details

Date: 13 April 2021
Orbit: 601 x 631 km, 82.6° (Epoch: 16 May)

Event Time Altitude Azimuth Distance (km) Brightness Sun altitude
Rises 22:14:48 0° 353° (N) 2,867 8.1 -21.9°
Reaches altitude 10° 22:17:08 10° 1° (N) 1,959 6.9 -22.1°
Maximum altitude 22:21:14 41° 72° (ENE) 885 4.2 -22.4°
Enters shadow 22:21:16 41° 73° (ENE) 885 4.2 -22.4°
